Location: Brunembert
(50.7122°N, 1.8935°E)
Time: 03:38:31
(UTC+00:00)

Cosmos 1503 Rocket - Pass Details

Date: 22 April 2021
Orbit: 753 x 790 km, 74.0° (Epoch: 06 May)

Event Time Altitude Azimuth Distance (km) Brightness Sun altitude
Exits shadow 23:44:44 59° 83° (E) 872 4.2 -26.7°
Drops below altitude 10° 23:49:24 10° 30° (NNE) 2,291 7.2 -26.8°
Sets 23:51:47 0° 27° (NNE) 3,223 8.2 -26.8°
